[[{"header":{"parameterUnit":"m.s-1","parameterCategory":2,"la1":30.2991,"la2":30.254,"lo1":-89.0895,"lo2":-89.0444,"dy":0.0017,"dx":0.0017,"nx":28,"ny":28,"refTime":"2024-03-20T09:00:00:Z","depth":"0","parameterNumber":2,"parameterNumberName":"U-component_of_CURRENTS"},"data":[0,0,0,0,0,0,0,0,0,0,0,0,0,0,0,0,0,0,0,0,0,0,0,0,0,0,0,0,0,0,0,0,0,0,0,0,0,0,0,0,0,0,0,0,0,0,0,0,0,0,0,0,0,0,0,0,0,0,0.3653,0.3652,0,0.3533,0.3532,0.353,0.3448,0.3448,0.3447,0.3447,0.3405,0.3404,0.3404,0,0,0,0,0,0,0,0,0,0,0,0,0,0.3698,0.3698,0.3653,0.3652,0.3651,0.3533,0.3531,0.3529,0.3448,0.3448,0.3447,0.3447,0.3406,0.3405,0.3404,0,0,0,0,0,0,0,0,0,0,0,0,0,0.3635,0.3698,0.3653,0.3599,0.3593,0.3534,0.3531,0.3529,0.3448,0.3448,0.3447,0.3447,0.3406,0.3405,0.3403,0.3403,0,0,0.3399,0.3399,0,0,0,0,0,0,0,0,0.3639,0.3633,0.3608,0.3602,0.3596,0.3508,0.3532,0.3492,0.3448,0.3499,0.3447,0.3447,0.345,0.3445,0.3417,0.3401,0.3399,0.3399,0.3398,0.3398,0.3398,0,0,0,0,0,0,0,0.3644,0.3637,0.3602,0.3607,0.3599,0.3542,0.3533,0.3523,0.3477,0.3494,0.3489,0.3482,0.3446,0.3418,0.3415,0.3399,0.3399,0.3398,0.3397,0.3397,0.3438,0.3439,0,0,0,0,0,0,0.3672,0.3642,0.3606,0.3598,0.3621,0.3542,0.3532,0.3534,0.3475,0.3466,0.3482,0.3479,0.342,0.3417,0.3414,0.3464,0.3398,0.3397,0.3396,0.3436,0.3438,0.344,0,0,0,0,0,0,0.3674,0.3671,0.361,0.362,0.3609,0.3543,0.3545,0.3532,0.3513,0.3465,0.3457,0.3479,0.342,0.3416,0.342,0.346,0.3396,0.3395,0.3433,0.3436,0.3439,0.353,0,0,0,0,0,0,0.3676,0.3672,0.3677,0.3622,0.3609,0.3596,0.3545,0.353,0.351,0.3504,0.346,0.3454,0.3419,0.3423,0.3419,0.3457,0.3394,0.3431,0.3435,0.3438,0.3525,0.3536,0.3545,0,0,0,0,0,0.3678,0.3686,0.3679,0.3674,0.3621,0.3597,0.3586,0.3533,0.3511,0.3512,0.3483,0.3456,0.3443,0.3423,0.3418,0.3457,0.3429,0.3434,0.3438,0.352,0.3534,0.3545,0,0,0,0,0,0,0.3694,0.3678,0.3668,0.3667,0.3648,0.3586,0.3579,0.3547,0.352,0.3519,0.3471,0.3465,0.3487,0.3462,0.3441,0.3481,0.3436,0.3439,0.35,0.3512,0.3522,0.3524,0.3393,0,0,0,0,0,0.3708,0.3719,0.369,0.3692,0.3691,0.3641,0.3623,0.3595,0.3564,0.355,0.3517,0.3498,0.3499,0.3497,0.3487,0.3504,0.3493,0.353,0.354,0.3549,0.3549,0.3584,0.3598,0.3454,0.3454,0.3454,0,0,0.3714,0.3707,0.3711,0.3698,0.3678,0.3669,0.3629,0.3618,0.361,0.3555,0.354,0.3533,0.3513,0.3531,0.354,0.3515,0.3584,0.3554,0.3561,0.3557,0.359,0.3604,0.3616,0.3457,0.3456,0.3456,0,0,0.3716,0.3734,0.3734,0.3733,0.3719,0.3699,0.3707,0.3665,0.3653,0.3647,0.3615,0.3631,0.361,0.3607,0.3605,0.3668,0.3639,0.3672,0.3721,0.3757,0.3769,0.3779,0.3781,0.3791,0.3675,0.3675,0.3675,0,0.3712,0.3715,0.373,0.3729,0.3725,0.3721,0.3713,0.371,0.367,0.3683,0.3661,0.3665,0.3648,0.3686,0.3702,0.3693,0.3694,0.3676,0.377,0.378,0.3789,0.3789,0.3799,0.368,0.3679,0.3679,0.3678,0,0.3705,0.3715,0.3723,0.3728,0.3735,0.3736,0.3744,0.3763,0.3759,0.3749,0.3791,0.3771,0.3775,0.3785,0.3756,0.3821,0.3795,0.3782,0.3738,0.3809,0.3804,0.3813,0.3687,0.3685,0.3684,0.3683,0,0,0.3647,0.3703,0.3699,0.3698,0.3735,0.3722,0.3779,0.3804,0.3825,0.384,0.3864,0.389,0.3893,0.389,0.3876,0.3902,0.3963,0.387,0.3869,0.387,0.4024,0.3987,0.3992,0.3972,0.3974,0.3975,0.3994,0,0.3618,0.3612,0.3663,0.366,0.3651,0.372,0.3756,0.3799,0.3839,0.3871,0.392,0.3931,0.3931,0.3931,0.3973,0.3959,0.399,0.3958,0.3956,0.3955,0.3913,0.4003,0.3883,0.3888,0.4001,0.4003,0.4004,0,0.3555,0.3567,0.3559,0.3609,0.3616,0.3634,0.3705,0.3742,0.3847,0.3886,0.3965,0.3983,0.4045,0.4017,0.4081,0.4061,0.4055,0.4046,0.4046,0.3984,0.3935,0.3836,0.3898,0.382,0.4016,0.4015,0.4014,0,0.3434,0.3476,0.3465,0.348,0.3551,0.3585,0.3636,0.374,0.3789,0.3898,0.3939,0.4029,0.4052,0.4096,0.4114,0.4096,0.4164,0.4133,0.4098,0.4093,0.3975,0.3957,0.3957,0.418,0.418,0.418,0.4179,0,0.3346,0.3331,0.3409,0.3397,0.3411,0.3494,0.3537,0.3625,0.3747,0.3806,0.3926,0.3986,0.4074,0.4131,0.414,0.4161,0.42,0.4123,0.4111,0.4002,0.3988,0.3899,0.3856,0.418,0.418,0.418,0.418,0,0.3204,0.3251,0.3246,0.3326,0.3348,0.3359,0.3484,0.3522,0.3657,0.3745,0.3783,0.3959,0.4049,0.4122,0.4179,0.4177,0.4088,0.4187,0.4043,0.4015,0.3893,0.386,0.369,0.3578,0.4145,0.4144,0.4144,0,0.313,0.3108,0.3173,0.318,0.3221,0.3265,0.3301,0.3456,0.3515,0.3725,0.3753,0.3899,0.3996,0.4101,0.4132,0.4164,0.4049,0.4041,0.399,0.389,0.3845,0.369,0.3597,0.3861,0.3858,0.3856,0.3854,0,0.301,0.3037,0.305,0.3065,0.3094,0.3129,0.3203,0.3249,0.3432,0.351,0.3653,0.3759,0.3924,0.3943,0.4018,0.4025,0.3861,0.3995,0.3934,0.3668,0.3455,0.3339,0.3828,0.3834,0.3836,0.3837,0.3839,0.3839,0.2933,0.292,0.2943,0.2946,0.2972,0.2995,0.299,0.3085,0.3162,0.3278,0.3475,0.3576,0.3732,0.3846,0.3828,0.3757,0.3724,0.3659,0.3639,0.3501,0.3354,0.3794,0.3767,0.3768,0.377,0.3771,0.3772,0,0.2832,0.2826,0.2823,0.2821,0.2791,0.2855,0.2906,0.2887,0.2911,0.3077,0.3175,0.3346,0.3401,0.3505,0.3543,0.3435,0.3265,0.3342,0.3105,0.3041,0.3482,0.3435,0.3282,0.3282,0.3282,0.3282,0.3282,0.3283,0.2784,0.2733,0.2724,0.2637,0.2629,0.2563,0.2568,0.2568,0.2646,0.272,0.2811,0.2962,0.3223,0.3332,0.3273,0.3195,0.2956,0.2821,0.2799,0.3147,0.3174,0.3201,0.3149,0.2938,0.2938,0.2235,0.223,0.2226]},{"header":{"parameterUnit":"m.s-1","parameterCategory":2,"la1":30.2991,"la2":30.254,"lo1":-89.0895,"lo2":-89.0444,"dy":0.0017,"dx":0.0017,"nx":28,"ny":28,"refTime":"2024-03-20T09:00:00:Z","depth":"0","parameterNumber":3,"parameterNumberName":"V-component_of_CURRENTS"},"data":[0,0,0,0,0,0,0,0,0,0,0,0,0,0,0,0,0,0,0,0,0,0,0,0,0,0,0,0,0,0,0,0,0,0,0,0,0,0,0,0,0,0,0,0,0,0,0,0,0,0,0,0,0,0,0,0,0,0,-0.0003,-0.0004,0,-0.0052,-0.0052,-0.0053,-0.0088,-0.0088,-0.0088,-0.0088,-0.0166,-0.0167,-0.0169,0,0,0,0,0,0,0,0,0,0,0,0,0,0.0033,0.0032,-0.0003,-0.0004,-0.0004,-0.0052,-0.0052,-0.0053,-0.0088,-0.0088,-0.0088,-0.0088,-0.0165,-0.0167,-0.017,0,0,0,0,0,0,0,0,0,0,0,0,0,0.0003,0.0032,-0.0003,-0.0026,-0.0029,-0.0051,-0.0052,-0.0053,-0.0088,-0.0088,-0.0088,-0.0088,-0.0164,-0.0167,-0.017,-0.0183,0,0,-0.0179,-0.018,0,0,0,0,0,0,0,0,0.0005,0.0001,-0.0022,-0.0025,-0.0027,-0.0063,-0.0068,-0.0098,-0.0088,-0.0067,-0.0088,-0.0088,-0.0133,-0.0138,-0.0148,-0.0187,-0.019,-0.0179,-0.0181,-0.0182,-0.0183,0,0,0,0,0,0,0,0.0007,0.0003,-0.0024,-0.0023,-0.0026,-0.0043,-0.0047,-0.0074,-0.0099,-0.0069,-0.0071,-0.0074,-0.0135,-0.0146,-0.0151,-0.0191,-0.0179,-0.0181,-0.0183,-0.0184,-0.0236,-0.0235,0,0,0,0,0,0,0.0017,0.0005,-0.0022,-0.0025,-0.001,-0.0043,-0.0048,-0.0052,-0.0099,-0.0105,-0.0074,-0.0075,-0.0141,-0.0147,-0.0153,-0.0155,-0.0182,-0.0185,-0.0186,-0.0236,-0.0236,-0.0235,0,0,0,0,0,0,0.0018,0.0015,-0.002,-0.001,-0.0016,-0.0043,-0.0048,-0.0053,-0.006,-0.0102,-0.011,-0.0074,-0.0141,-0.0149,-0.0168,-0.0159,-0.0186,-0.0188,-0.0237,-0.0236,-0.0236,-0.0169,0,0,0,0,0,0,0.0019,0.0016,0.0018,-0.0009,-0.0016,-0.0022,-0.0047,-0.0054,-0.0061,-0.0063,-0.0105,-0.0113,-0.0142,-0.0163,-0.0171,-0.0164,-0.0191,-0.0237,-0.0236,-0.0236,-0.0172,-0.0167,-0.0162,0,0,0,0,0,0.0021,0.0032,0.0018,0.0015,-0.0012,-0.0021,-0.0026,-0.0048,-0.006,-0.0056,-0.0085,-0.0111,-0.0164,-0.0165,-0.0174,-0.0167,-0.0237,-0.0237,-0.0236,-0.0174,-0.0168,-0.0162,0,0,0,0,0,0,0.0052,0.0029,0.0013,0.0017,0.0002,-0.0026,-0.0024,-0.0041,-0.0061,-0.0065,-0.0106,-0.0116,-0.0129,-0.0157,-0.0157,-0.0181,-0.0205,-0.0206,-0.0156,-0.015,-0.0145,-0.0119,-0.0193,0,0,0,0,0,0.0059,0.0059,0.0034,0.0038,0.0033,0.0004,-0.0002,-0.0018,-0.004,-0.0049,-0.0077,-0.0109,-0.0134,-0.0147,-0.0174,-0.0186,-0.0208,-0.0188,-0.0183,-0.0179,-0.0164,-0.0185,-0.018,-0.0233,-0.0233,-0.0233,0,0,0.0072,0.006,0.0059,0.0044,0.0029,0.0034,-0.0,-0.0004,-0.0,-0.0054,-0.0057,-0.0092,-0.0133,-0.0146,-0.0155,-0.0167,-0.0177,-0.0178,-0.0174,-0.0161,-0.0184,-0.0179,-0.0174,-0.0232,-0.0232,-0.0232,0,0,0.0108,0.0087,0.0103,0.0093,0.0078,0.006,0.0063,0.0038,0.0027,0.0014,-0.0021,-0.0045,-0.0087,-0.0108,-0.0127,-0.011,-0.015,-0.0125,-0.0079,-0.01,-0.0096,-0.0092,-0.0118,-0.0117,-0.0123,-0.0123,-0.0123,0,0.0128,0.0138,0.0108,0.0122,0.0121,0.0078,0.0098,0.008,0.0053,0.0052,0.0023,-0.0026,-0.0066,-0.0073,-0.0073,-0.0098,-0.0118,-0.0098,-0.0092,-0.0089,-0.0086,-0.0114,-0.0114,-0.0119,-0.012,-0.012,-0.012,0,0.0176,0.0182,0.0192,0.0192,0.0188,0.0196,0.0169,0.0164,0.0138,0.0119,0.0104,0.0047,0.0022,-0.0001,-0.0036,-0.0034,-0.0059,-0.0082,-0.0103,-0.0077,-0.0108,-0.0109,-0.0115,-0.0116,-0.0117,-0.0118,0,0,0.0231,0.0227,0.0232,0.0246,0.0225,0.0234,0.0236,0.0234,0.0254,0.0203,0.022,0.0158,0.0126,0.0103,0.0055,0.003,0.0017,-0.0015,-0.0017,-0.0033,-0.0031,-0.0042,-0.0045,-0.0006,-0.0006,-0.0005,-0.0063,0,0.028,0.0325,0.0305,0.0345,0.0365,0.0327,0.0342,0.0331,0.0311,0.0315,0.0248,0.024,0.0166,0.0155,0.0118,0.005,0.0019,0.0035,-0.0061,-0.0064,-0.007,-0.0044,-0.001,-0.0057,-0.0064,-0.0064,-0.0064,0,0.0338,0.0359,0.0411,0.0429,0.0436,0.0455,0.0476,0.0483,0.0466,0.045,0.0419,0.0363,0.0317,0.0248,0.0146,0.016,0.0073,0.0009,0.0005,-0.0024,-0.0075,-0.0085,-0.0059,-0.0236,-0.0066,-0.0066,-0.0066,0,0.0403,0.0435,0.0483,0.0487,0.0502,0.0526,0.0535,0.0533,0.056,0.0541,0.0551,0.0478,0.0456,0.0338,0.0193,0.0171,0.0081,0.0031,-0.0062,-0.0065,-0.0062,-0.0064,-0.0208,-0.004,-0.004,-0.004,-0.004,0,0.0463,0.0501,0.0523,0.0549,0.0622,0.0602,0.0675,0.0671,0.0685,0.0742,0.0633,0.0657,0.0478,0.0394,0.0241,0.0099,0.0115,-0.0041,-0.0072,-0.004,-0.0039,-0.0215,-0.0309,-0.0042,-0.0041,-0.0041,-0.0041,0,0.0525,0.0535,0.0595,0.0631,0.0655,0.0709,0.0768,0.0816,0.0814,0.0883,0.088,0.0804,0.0702,0.0509,0.0334,0.0184,-0.0057,-0.003,0.0018,-0.0006,-0.0263,-0.0353,-0.0514,-0.0572,-0.014,-0.0141,-0.0141,0,0.0558,0.0598,0.0668,0.0715,0.0738,0.0813,0.0867,0.0887,0.095,0.0988,0.1034,0.0948,0.0924,0.0648,0.0372,0.011,-0.006,-0.0045,-0.0086,-0.0262,-0.0386,-0.0459,-0.05,-0.0066,-0.0066,-0.0065,-0.0065,0,0.0621,0.065,0.0701,0.0802,0.0873,0.096,0.1044,0.1116,0.116,0.1224,0.13,0.1282,0.102,0.0782,0.0408,0.0217,-0.0149,-0.005,-0.024,-0.0339,-0.0417,-0.0491,-0.0058,-0.0063,-0.0064,-0.0064,-0.0064,-0.0064,0.0671,0.0723,0.0796,0.0896,0.0981,0.11,0.1188,0.1293,0.1423,0.154,0.1515,0.1542,0.1169,0.0672,0.0374,-0.0141,-0.0155,-0.0301,-0.0396,-0.0455,-0.0508,-0.0071,-0.0108,-0.0108,-0.0108,-0.0109,-0.0109,0,0.0726,0.0787,0.0879,0.0998,0.1102,0.114,0.1301,0.1405,0.1583,0.1709,0.1785,0.1655,0.1177,0.0679,-0.002,-0.0412,-0.0546,-0.063,-0.0734,-0.076,-0.0376,-0.0371,-0.0454,-0.0454,-0.0454,-0.0454,-0.0454,-0.0453,0.0754,0.085,0.09,0.1081,0.1168,0.1323,0.1424,0.1594,0.1732,0.1915,0.1975,0.1979,0.1608,0.0322,-0.0567,-0.0773,-0.1027,-0.1096,-0.1234,-0.0994,-0.0971,-0.095,-0.0969,-0.1176,-0.1177,-0.1554,-0.1558,-0.1561]}],[{"header":{"parameterUnit":"m.s-1","parameterCategory":2,"la1":30.2991,"la2":30.254,"lo1":-89.0895,"lo2":-89.0444,"dy":0.0017,"dx":0.0017,"nx":28,"ny":28,"refTime":"2024-03-20T09:00:00:Z","depth":"2","parameterNumber":2,"parameterNumberName":"U-component_of_CURRENTS"},"data":[0,0,0,0,0,0,0,0,0,0,0,0,0,0,0,0,0,0,0,0,0,0,0,0,0,0,0,0,0,0,0,0,0,0,0,0,0,0,0,0,0,0,0,0,0,0,0,0,0,0,0,0,0,0,0,0,0,0,0.2721,0.2722,0,0.275,0.275,0.275,0.2747,0.2747,0.2747,0.2747,0.2744,0.2744,0.2744,0,0,0,0,0,0,0,0,0,0,0,0,0,0.268,0.268,0.2721,0.2722,0.2723,0.275,0.275,0.275,0.2747,0.2747,0.2747,0.2747,0.2744,0.2744,0.2744,0,0,0,0,0,0,0,0,0,0,0,0,0,0.2699,0.268,0.2721,0.2727,0.2728,0.275,0.275,0.275,0.2747,0.2747,0.2747,0.2747,0.2744,0.2744,0.2744,0.2748,0,0,0.2744,0.2744,0,0,0,0,0,0,0,0,0.2698,0.27,0.2726,0.2727,0.2728,0.2748,0.2735,0.2749,0.2747,0.2736,0.2747,0.2747,0.2745,0.2745,0.2746,0.2747,0.2747,0.2744,0.2744,0.2744,0.2744,0,0,0,0,0,0,0,0.2696,0.2699,0.2729,0.2726,0.2728,0.2734,0.2736,0.2737,0.2738,0.2737,0.2738,0.2747,0.2745,0.2746,0.2746,0.2747,0.2744,0.2744,0.2744,0.2744,0.2809,0.2811,0,0,0,0,0,0,0.2699,0.2697,0.2728,0.273,0.2716,0.2735,0.2737,0.2739,0.2738,0.274,0.2747,0.2747,0.2746,0.2746,0.2746,0.28,0.2744,0.2744,0.2744,0.2807,0.2809,0.2811,0,0,0,0,0,0,0.2698,0.2702,0.2727,0.2718,0.2722,0.2737,0.2738,0.274,0.2758,0.2747,0.2747,0.2767,0.2746,0.2746,0.2765,0.2798,0.2744,0.2744,0.2805,0.2808,0.281,0.2876,0,0,0,0,0,0,0.2697,0.2701,0.271,0.2718,0.2723,0.2755,0.2739,0.274,0.2765,0.2765,0.2763,0.2762,0.2746,0.2765,0.2765,0.2797,0.2744,0.2803,0.2807,0.281,0.2872,0.2881,0.2888,0,0,0,0,0,0.2695,0.2702,0.2709,0.2714,0.2732,0.2757,0.276,0.2767,0.2766,0.2781,0.2781,0.2763,0.2786,0.2767,0.2766,0.2798,0.2802,0.2806,0.2809,0.2868,0.2879,0.2888,0,0,0,0,0,0,0.2686,0.2704,0.2711,0.2723,0.2749,0.2758,0.2775,0.2781,0.2793,0.2796,0.278,0.2779,0.2811,0.2797,0.2777,0.2828,0.2793,0.2797,0.2838,0.2848,0.2856,0.2857,0.2744,0,0,0,0,0,0.2691,0.2705,0.2725,0.2741,0.2753,0.2769,0.2783,0.2793,0.2803,0.2809,0.2807,0.2811,0.2825,0.283,0.2836,0.2859,0.2859,0.2883,0.2891,0.2898,0.29,0.2943,0.2955,0.2824,0.2824,0.2824,0,0,0.2692,0.2707,0.2714,0.2742,0.2759,0.278,0.2777,0.2807,0.2827,0.2806,0.2831,0.2841,0.2839,0.2869,0.2882,0.2861,0.2935,0.2903,0.2908,0.2907,0.2949,0.2961,0.2973,0.2826,0.2826,0.2826,0,0,0.2702,0.2718,0.2732,0.2756,0.2793,0.2804,0.2819,0.2841,0.2855,0.2885,0.288,0.2909,0.2921,0.2929,0.2934,0.2992,0.298,0.3001,0.3039,0.3082,0.3093,0.3102,0.3115,0.3125,0.3001,0.3001,0.3002,0,0.2706,0.2723,0.2743,0.2767,0.279,0.2816,0.284,0.2859,0.2887,0.2912,0.2902,0.2956,0.2949,0.2997,0.3014,0.301,0.3025,0.3,0.3092,0.3102,0.3111,0.3121,0.3132,0.3005,0.3005,0.3004,0.3004,0,0.2721,0.2744,0.2758,0.2793,0.2822,0.2851,0.2882,0.2918,0.2941,0.2963,0.3025,0.3028,0.3063,0.307,0.3055,0.3122,0.3109,0.3101,0.3066,0.3128,0.3135,0.3145,0.301,0.3009,0.3008,0.3007,0,0,0.2693,0.2757,0.2758,0.2778,0.284,0.2854,0.2914,0.2968,0.3004,0.3048,0.3098,0.3134,0.3154,0.3161,0.3161,0.3189,0.3254,0.3173,0.3174,0.3182,0.3339,0.3288,0.3293,0.3271,0.3274,0.3275,0.3318,0,0.2698,0.2732,0.2774,0.281,0.2827,0.289,0.2933,0.2992,0.3044,0.3096,0.3144,0.3184,0.3184,0.3204,0.3243,0.3251,0.3285,0.3243,0.328,0.3281,0.3226,0.3305,0.3043,0.3055,0.3327,0.3328,0.333,0,0.2682,0.2711,0.2747,0.281,0.2825,0.2859,0.2942,0.299,0.3089,0.3136,0.3219,0.3248,0.3314,0.329,0.3369,0.3348,0.3354,0.3354,0.3356,0.3291,0.3249,0.3039,0.3063,0.3345,0.3344,0.3343,0.3342,0,0.2617,0.2681,0.2707,0.2729,0.281,0.2853,0.2906,0.3006,0.3057,0.3169,0.3216,0.3309,0.335,0.3397,0.3424,0.3404,0.3492,0.346,0.3421,0.3416,0.3189,0.3161,0.3517,0.3517,0.3516,0.3516,0.3516,0,0.2586,0.2599,0.2678,0.2688,0.2728,0.2806,0.287,0.2948,0.306,0.3124,0.3229,0.3292,0.3382,0.3445,0.3456,0.3482,0.3532,0.3444,0.3437,0.3204,0.3179,0.3422,0.3411,0.3518,0.3518,0.3517,0.3517,0,0.2505,0.2557,0.2587,0.2671,0.2698,0.2728,0.2847,0.2887,0.3012,0.3104,0.3143,0.3296,0.3389,0.3459,0.3529,0.3514,0.3537,0.3529,0.3242,0.3202,0.3417,0.3409,0.3483,0.3482,0.3481,0.348,0.348,0,0.2468,0.2475,0.2553,0.257,0.2613,0.2675,0.2713,0.285,0.2908,0.3098,0.3129,0.3271,0.335,0.3452,0.3454,0.3478,0.3536,0.3233,0.3147,0.3434,0.3421,0.3413,0.3407,0.2862,0.2857,0.2852,0.2848,0,0.2401,0.2433,0.2459,0.2494,0.2532,0.2572,0.2651,0.2693,0.2854,0.2927,0.3047,0.313,0.3265,0.3192,0.3251,0.3227,0.3211,0.314,0.3525,0.2925,0.2856,0.2841,0.2852,0.2807,0.2811,0.2814,0.2816,0.2818,0.2351,0.2351,0.2386,0.2407,0.2441,0.2462,0.2461,0.2545,0.2611,0.2706,0.2872,0.2901,0.2972,0.2935,0.2865,0.2816,0.3034,0.2881,0.2892,0.2909,0.2843,0.2778,0.27,0.2703,0.2706,0.2708,0.2711,0,0.2273,0.228,0.2294,0.2307,0.2285,0.2351,0.2394,0.2365,0.2376,0.25,0.2569,0.2416,0.2399,0.2468,0.2338,0.2357,0.23,0.2252,0.2141,0.2187,0.2226,0.2121,0.1788,0.1785,0.1782,0.1779,0,0,0.2237,0.2206,0.2203,0.214,0.2146,0.2087,0.2086,0.2065,0.2108,0.209,0.2091,0.2288,0.2401,0.205,0.2024,0.1877,0.2005,0.1805,0.2554,0.247,0.2504,0.2612,0.2506,0,0,0,0,0]},{"header":{"parameterUnit":"m.s-1","parameterCategory":2,"la1":30.2991,"la2":30.254,"lo1":-89.0895,"lo2":-89.0444,"dy":0.0017,"dx":0.0017,"nx":28,"ny":28,"refTime":"2024-03-20T09:00:00:Z","depth":"2","parameterNumber":3,"parameterNumberName":"V-component_of_CURRENTS"},"data":[0,0,0,0,0,0,0,0,0,0,0,0,0,0,0,0,0,0,0,0,0,0,0,0,0,0,0,0,0,0,0,0,0,0,0,0,0,0,0,0,0,0,0,0,0,0,0,0,0,0,0,0,0,0,0,0,0,0,0.017,0.017,0,0.01,0.0099,0.0099,0.0059,0.0059,0.0059,0.0059,-0.0004,-0.0006,-0.0008,0,0,0,0,0,0,0,0,0,0,0,0,0,0.0219,0.0218,0.017,0.017,0.0169,0.01,0.0099,0.0098,0.0059,0.0059,0.0059,0.0059,-0.0004,-0.0006,-0.0008,0,0,0,0,0,0,0,0,0,0,0,0,0,0.0178,0.0218,0.0171,0.0141,0.0138,0.0101,0.0099,0.0098,0.0059,0.0059,0.0059,0.0059,-0.0003,-0.0006,-0.0008,-0.0021,0,0,-0.0015,-0.0016,0,0,0,0,0,0,0,0,0.018,0.0176,0.0147,0.0143,0.014,0.0089,0.0093,0.0059,0.0059,0.0089,0.0059,0.0059,0.0028,0.0023,0.0009,-0.0024,-0.0026,-0.0016,-0.0017,-0.0018,-0.0019,0,0,0,0,0,0,0,0.0183,0.0178,0.0142,0.0146,0.0141,0.0114,0.0109,0.0086,0.0059,0.0086,0.0083,0.0076,0.0026,0.0012,0.0007,-0.0027,-0.0015,-0.0018,-0.0019,-0.002,-0.0066,-0.0065,0,0,0,0,0,0,0.0196,0.0181,0.0144,0.014,0.0161,0.0114,0.0107,0.0105,0.0059,0.0052,0.0076,0.0075,0.0016,0.001,0.0005,0.0004,-0.0018,-0.002,-0.0022,-0.0066,-0.0065,-0.0065,0,0,0,0,0,0,0.0197,0.0193,0.0147,0.0159,0.0152,0.0113,0.011,0.0104,0.0091,0.0052,0.0045,0.0072,0.0015,0.0008,-0.0007,0.0001,-0.0021,-0.0024,-0.0066,-0.0066,-0.0065,-0.0008,0,0,0,0,0,0,0.0199,0.0194,0.0197,0.016,0.0151,0.0134,0.011,0.0102,0.0087,0.0084,0.0046,0.0039,0.0015,-0.0003,-0.0009,-0.0003,-0.0026,-0.0066,-0.0066,-0.0065,-0.001,-0.0005,-0.0002,0,0,0,0,0,0.0201,0.021,0.0198,0.0193,0.0156,0.0135,0.0128,0.0099,0.0087,0.0087,0.0062,0.0041,-0.0005,-0.0005,-0.0012,-0.0006,-0.0067,-0.0066,-0.0066,-0.0012,-0.0006,-0.0002,0,0,0,0,0,0,0.0232,0.0205,0.0192,0.0192,0.0168,0.0129,0.0126,0.0104,0.0082,0.0082,0.0044,0.0036,0.0025,0.0001,0.0002,-0.0018,-0.0039,-0.004,0.0004,0.0009,0.0013,0.0031,-0.0028,0,0,0,0,0,0.024,0.0241,0.0208,0.0209,0.02,0.0163,0.0151,0.0132,0.0107,0.0096,0.0068,0.0041,0.002,0.0009,-0.0014,-0.0024,-0.005,-0.0026,-0.0021,-0.0018,-0.0008,-0.0039,-0.0036,-0.0063,-0.0063,-0.0063,0,0,0.0252,0.0238,0.0238,0.0215,0.0195,0.0192,0.0156,0.0144,0.0142,0.0094,0.0086,0.0055,0.0021,0.001,0.0002,-0.0008,-0.0025,-0.0017,-0.0013,-0.0006,-0.0038,-0.0035,-0.0033,-0.0063,-0.0063,-0.0063,0,0,0.0281,0.0265,0.0277,0.0261,0.0238,0.0216,0.0216,0.0181,0.0167,0.0151,0.0119,0.0095,0.006,0.0038,0.0022,0.0035,-0.0002,0.0027,0.0063,0.0033,0.0036,0.0037,0.0004,0.0003,0.0029,0.0029,0.0029,0,0.0297,0.0304,0.0276,0.0282,0.0277,0.0233,0.0244,0.0223,0.0187,0.0183,0.0159,0.0109,0.0074,0.0065,0.0066,0.0046,0.0022,0.0048,0.004,0.0041,0.0041,0.0007,0.0005,0.0032,0.0032,0.0031,0.0031,0,0.0332,0.0336,0.0342,0.0337,0.0329,0.033,0.0301,0.0293,0.0267,0.0243,0.0224,0.0172,0.0145,0.0125,0.0097,0.0089,0.0068,0.0049,0.003,0.0048,0.001,0.0007,0.0036,0.0035,0.0034,0.0034,0,0,0.0374,0.0369,0.0372,0.0383,0.0359,0.0362,0.0361,0.0351,0.0364,0.0313,0.0317,0.0262,0.0231,0.0211,0.0169,0.0137,0.011,0.01,0.0097,0.0073,0.0044,0.003,0.0024,0.0091,0.009,0.009,0.0014,0,0.041,0.044,0.0424,0.0455,0.0468,0.0436,0.0445,0.0432,0.0408,0.0401,0.0339,0.0326,0.0265,0.0255,0.0212,0.0141,0.0104,0.0132,0.0025,0.0022,0.0013,0.0021,0.0049,-0.0016,0.001,0.001,0.0009,0,0.0452,0.0467,0.0506,0.0522,0.0527,0.0541,0.0556,0.0559,0.0533,0.0515,0.0481,0.0429,0.0377,0.032,0.0206,0.0229,0.0144,0.0079,0.0074,0.0041,0.0002,-0.003,-0.0024,0.0002,0.0003,0.0003,0.0004,0,0.0503,0.0526,0.0565,0.0568,0.0579,0.0599,0.0607,0.0599,0.0619,0.0592,0.0596,0.0518,0.0489,0.0374,0.0233,0.0221,0.0103,0.0068,-0.0027,-0.0029,-0.0036,-0.0038,-0.0014,-0.0014,-0.0014,-0.0014,-0.0014,0,0.0547,0.0578,0.0598,0.0618,0.068,0.0664,0.0723,0.0717,0.0722,0.0762,0.0666,0.0675,0.0502,0.0409,0.0267,0.0116,0.0128,-0.0016,-0.0046,-0.0016,-0.0015,-0.0024,-0.0024,-0.0017,-0.0016,-0.0016,-0.0015,0,0.0597,0.0603,0.0653,0.0685,0.0706,0.0753,0.0805,0.0844,0.0837,0.0884,0.088,0.0796,0.0679,0.0496,0.0311,0.0175,0.0021,-0.0038,0.0008,-0.0016,-0.0105,-0.0101,-0.0154,-0.0155,-0.0156,-0.0157,-0.0157,0,0.0621,0.0654,0.0715,0.0755,0.0775,0.0842,0.089,0.0906,0.0956,0.0969,0.1001,0.09,0.0849,0.0565,0.031,0.006,0.0022,-0.0083,-0.0107,-0.0093,-0.0118,-0.0112,-0.0108,-0.01,-0.01,-0.01,-0.01,0,0.067,0.0696,0.074,0.0828,0.089,0.0968,0.1041,0.11,0.1131,0.117,0.1204,0.116,0.0892,0.0643,0.0295,0.013,-0.0043,-0.0093,-0.0086,-0.0063,-0.0047,-0.0069,-0.0065,-0.0101,-0.0101,-0.0101,-0.0101,-0.0101,0.0711,0.0755,0.0817,0.0905,0.0982,0.1086,0.116,0.1241,0.1339,0.1402,0.1359,0.1297,0.1007,0.0565,0.0264,-0.0053,-0.0039,-0.0154,-0.0152,-0.015,-0.0124,-0.0109,-0.0171,-0.0172,-0.0172,-0.0172,-0.0172,0,0.0755,0.0806,0.0885,0.0988,0.108,0.1119,0.1256,0.1333,0.1459,0.1505,0.1526,0.1251,0.0957,0.0616,0.0146,-0.013,-0.0147,-0.0216,-0.0181,-0.0178,-0.0175,-0.015,-0.0205,-0.0206,-0.0207,-0.0208,0,0,0.0775,0.0856,0.0898,0.1054,0.1132,0.1268,0.1353,0.147,0.1542,0.1593,0.1553,0.1474,0.1058,0.0713,0.0334,0.0058,0.0008,0.0011,0.0071,0.0163,0.0168,-0.0104,-0.0057,0,0,0,0,0]}],[{"header":{"parameterUnit":"m.s-1","parameterCategory":2,"la1":30.2991,"la2":30.254,"lo1":-89.0895,"lo2":-89.0444,"dy":0.0017,"dx":0.0017,"nx":28,"ny":28,"refTime":"2024-03-20T09:00:00:Z","depth":"4","parameterNumber":2,"parameterNumberName":"U-component_of_CURRENTS"},"data":[0,0,0,0,0,0,0,0,0,0,0,0,0,0,0,0,0,0,0,0,0,0,0,0,0,0,0,0,0,0,0,0,0,0,0,0,0,0,0,0,0,0,0,0,0,0,0,0,0,0,0,0,0,0,0,0,0,0,0.1658,0.1659,0,0.1752,0.1752,0.1753,0.1821,0.1822,0.1823,0.1824,0.1893,0.1894,0.1895,0,0,0,0,0,0,0,0,0,0,0,0,0,0.1563,0.1564,0.1658,0.166,0.1661,0.1751,0.1753,0.1754,0.1821,0.1822,0.1823,0.1824,0.1893,0.1894,0.1896,0,0,0,0,0,0,0,0,0,0,0,0,0,0.1623,0.1564,0.1658,0.1707,0.1712,0.1751,0.1753,0.1754,0.1821,0.1822,0.1823,0.1824,0.1892,0.1894,0.1896,0.1884,0,0,0.1901,0.1902,0,0,0,0,0,0,0,0,0.1619,0.1626,0.1698,0.1704,0.171,0.1778,0.1745,0.1797,0.1821,0.1778,0.1824,0.1825,0.1853,0.1858,0.1871,0.1887,0.189,0.1901,0.1902,0.1903,0.1903,0,0,0,0,0,0,0,0.1615,0.1623,0.1693,0.17,0.1707,0.1733,0.1742,0.1755,0.1806,0.1782,0.1787,0.18,0.1856,0.1869,0.1873,0.1891,0.1901,0.1903,0.1904,0.1904,0.2013,0.2015,0,0,0,0,0,0,0.1605,0.1618,0.169,0.1696,0.1669,0.1733,0.1744,0.1753,0.1807,0.1817,0.1799,0.1803,0.1865,0.187,0.1875,0.1962,0.1903,0.1905,0.1906,0.2011,0.2013,0.2015,0,0,0,0,0,0,0.1602,0.161,0.1687,0.1661,0.1673,0.1734,0.1744,0.1755,0.1809,0.182,0.183,0.1847,0.1866,0.1873,0.1924,0.1961,0.1905,0.1907,0.2009,0.2012,0.2014,0.2072,0,0,0,0,0,0,0.1599,0.1609,0.1631,0.166,0.1674,0.1734,0.1743,0.1756,0.1813,0.182,0.1864,0.1869,0.1868,0.1922,0.1926,0.1962,0.1908,0.2007,0.201,0.2014,0.2067,0.2076,0.2083,0,0,0,0,0,0.1595,0.1614,0.1631,0.1641,0.1696,0.1735,0.1745,0.179,0.1815,0.1843,0.1877,0.187,0.1947,0.1925,0.1929,0.1967,0.2005,0.2009,0.2013,0.2064,0.2074,0.2083,0,0,0,0,0,0,0.1588,0.1624,0.1643,0.1674,0.1714,0.1748,0.1785,0.1812,0.1862,0.1881,0.1891,0.1899,0.1959,0.1956,0.1931,0.201,0.1976,0.1981,0.2013,0.2023,0.203,0.203,0.191,0,0,0,0,0,0.1594,0.162,0.1656,0.1687,0.171,0.1755,0.1785,0.1816,0.1855,0.1881,0.1911,0.1943,0.1972,0.1993,0.2016,0.2055,0.2059,0.2084,0.2092,0.2099,0.2103,0.2152,0.2164,0.2029,0.2029,0.2029,0,0,0.1601,0.1626,0.1643,0.1689,0.1726,0.1761,0.1777,0.1834,0.1871,0.1878,0.1949,0.1976,0.1991,0.204,0.2066,0.2046,0.2139,0.2104,0.2109,0.211,0.2157,0.217,0.2182,0.2032,0.2031,0.2031,0,0,0.1618,0.1652,0.1679,0.1713,0.1773,0.1795,0.1819,0.1876,0.1915,0.1975,0.1993,0.2045,0.2089,0.2108,0.212,0.2185,0.2182,0.2201,0.2238,0.2286,0.2298,0.2308,0.2324,0.2335,0.2202,0.2202,0.2202,0,0.1632,0.1665,0.1696,0.1731,0.1768,0.1813,0.1854,0.189,0.196,0.2,0.2008,0.2106,0.2118,0.2176,0.22,0.2203,0.2223,0.2198,0.2296,0.2306,0.2316,0.233,0.2342,0.2205,0.2205,0.2204,0.2204,0,0.1659,0.1701,0.1724,0.1777,0.1817,0.1864,0.1911,0.1967,0.2019,0.2058,0.2149,0.2175,0.2236,0.2248,0.2241,0.2319,0.2309,0.2302,0.2269,0.2333,0.2344,0.2355,0.221,0.2209,0.2208,0.2207,0,0,0.1648,0.1727,0.174,0.1773,0.1851,0.1879,0.1952,0.2024,0.2079,0.2152,0.2226,0.2283,0.2319,0.2335,0.2348,0.2381,0.2455,0.2374,0.2375,0.2385,0.2554,0.2393,0.2389,0.2476,0.2479,0.2481,0.2533,0,0.1668,0.1728,0.1772,0.1838,0.1871,0.1941,0.1996,0.207,0.2138,0.2216,0.2273,0.2343,0.2345,0.2386,0.2427,0.2452,0.2488,0.244,0.2496,0.2496,0.2342,0.2398,0.2488,0.2541,0.2543,0.2545,0.2546,0,0.1675,0.1716,0.1785,0.1865,0.189,0.1941,0.2048,0.2107,0.2218,0.2277,0.2372,0.2416,0.2495,0.2477,0.2569,0.2546,0.2561,0.2567,0.2569,0.2405,0.2356,0.2466,0.2565,0.2564,0.2562,0.2561,0.256,0,0.163,0.1721,0.1776,0.1806,0.1903,0.1965,0.203,0.214,0.2201,0.2332,0.2391,0.2492,0.2554,0.2604,0.2636,0.2619,0.2713,0.2686,0.2555,0.2543,0.2646,0.2635,0.275,0.275,0.275,0.275,0.2749,0,0.161,0.1656,0.1766,0.1793,0.1867,0.195,0.2044,0.2127,0.2246,0.2315,0.2427,0.2486,0.2595,0.2658,0.267,0.2645,0.2753,0.2566,0.2551,0.2667,0.2658,0.2653,0.2641,0.2752,0.2751,0.2751,0.275,0,0.1545,0.1619,0.1686,0.1805,0.1848,0.1906,0.2047,0.2098,0.2231,0.2328,0.2376,0.2514,0.2591,0.2665,0.274,0.267,0.2667,0.2634,0.2752,0.2743,0.2452,0.2443,0.2475,0.247,0.2466,0.2462,0.2459,0,0.1512,0.1542,0.1679,0.1721,0.1787,0.1885,0.1941,0.2082,0.2139,0.2319,0.2346,0.2478,0.2552,0.2521,0.2616,0.2628,0.2602,0.2575,0.2504,0.2444,0.2428,0.2425,0.2422,0.2452,0.2451,0.245,0.2449,0,0.1449,0.1518,0.1573,0.166,0.1734,0.1796,0.1897,0.1922,0.2076,0.2211,0.2255,0.2291,0.2371,0.2418,0.2452,0.2457,0.2573,0.2529,0.2537,0.247,0.2417,0.2404,0.2406,0.2434,0.2436,0.2437,0.2438,0,0.141,0.1432,0.1515,0.1576,0.1657,0.1682,0.1749,0.1805,0.1874,0.2065,0.2077,0.2214,0.2346,0.2331,0.2365,0.2357,0.2313,0.222,0.2243,0.2261,0.2167,0.2067,0.1968,0,0,0,0,0,0.1356,0.1365,0.1417,0.1471,0.1541,0.1589,0.1699,0.1766,0.1913,0.1886,0.1975,0.2035,0.2076,0.2151,0.2099,0.2281,0.2331,0.2211,0.2239,0.235,0.2368,0.2278,0,0,0,0,0,0,0.132,0.1367,0.1379,0.1364,0.1376,0.1436,0.15,0.1602,0.1597,0.1755,0.1788,0.1904,0.198,0.2082,0.2057,0.208,0.2053,0.2301,0.2295,0.234,0.2356,0.237,0.2284,0,0,0,0,0]},{"header":{"parameterUnit":"m.s-1","parameterCategory":2,"la1":30.2991,"la2":30.254,"lo1":-89.0895,"lo2":-89.0444,"dy":0.0017,"dx":0.0017,"nx":28,"ny":28,"refTime":"2024-03-20T09:00:00:Z","depth":"4","parameterNumber":3,"parameterNumberName":"V-component_of_CURRENTS"},"data":[0,0,0,0,0,0,0,0,0,0,0,0,0,0,0,0,0,0,0,0,0,0,0,0,0,0,0,0,0,0,0,0,0,0,0,0,0,0,0,0,0,0,0,0,0,0,0,0,0,0,0,0,0,0,0,0,0,0,0.0173,0.0173,0,0.0128,0.0128,0.0127,0.0105,0.0105,0.0105,0.0105,0.0066,0.0065,0.0064,0,0,0,0,0,0,0,0,0,0,0,0,0,0.0202,0.0202,0.0173,0.0173,0.0172,0.0128,0.0128,0.0127,0.0105,0.0105,0.0105,0.0105,0.0067,0.0065,0.0064,0,0,0,0,0,0,0,0,0,0,0,0,0,0.0176,0.0202,0.0174,0.0156,0.0154,0.0128,0.0128,0.0127,0.0105,0.0105,0.0105,0.0105,0.0067,0.0065,0.0064,0.0053,0,0,0.0059,0.0058,0,0,0,0,0,0,0,0,0.0178,0.0175,0.0159,0.0157,0.0155,0.0123,0.0123,0.0102,0.0105,0.0123,0.0105,0.0105,0.0086,0.0083,0.0073,0.0051,0.0049,0.0059,0.0058,0.0057,0.0057,0,0,0,0,0,0,0,0.0179,0.0177,0.0155,0.0159,0.0156,0.0138,0.0134,0.0119,0.0105,0.0122,0.012,0.0116,0.0085,0.0075,0.0072,0.0049,0.0059,0.0057,0.0056,0.0056,0.0025,0.0025,0,0,0,0,0,0,0.0188,0.0179,0.0157,0.0154,0.0167,0.0137,0.0133,0.0133,0.0104,0.01,0.0116,0.0115,0.0078,0.0074,0.0071,0.0074,0.0057,0.0056,0.0055,0.0025,0.0025,0.0025,0,0,0,0,0,0,0.0189,0.0187,0.0158,0.0165,0.016,0.0137,0.0136,0.0132,0.0125,0.01,0.0096,0.0114,0.0078,0.0073,0.0065,0.0071,0.0055,0.0053,0.0025,0.0025,0.0025,0.0068,0,0,0,0,0,0,0.019,0.0187,0.0191,0.0166,0.016,0.015,0.0136,0.0131,0.0122,0.0121,0.0097,0.0093,0.0077,0.0067,0.0063,0.0069,0.0052,0.0024,0.0025,0.0025,0.0066,0.0069,0.0072,0,0,0,0,0,0.0191,0.0198,0.0192,0.0189,0.0166,0.0151,0.0146,0.0129,0.0123,0.0123,0.0108,0.0094,0.0066,0.0066,0.0061,0.0067,0.0024,0.0025,0.0025,0.0065,0.0069,0.0072,0,0,0,0,0,0,0.0211,0.0195,0.0188,0.0189,0.0175,0.0147,0.0147,0.0133,0.012,0.0122,0.0097,0.0092,0.0087,0.007,0.0071,0.0058,0.0042,0.0042,0.0074,0.0078,0.0081,0.0091,0.0051,0,0,0,0,0,0.0218,0.0221,0.0199,0.0201,0.0196,0.0172,0.0164,0.0153,0.0137,0.0131,0.0113,0.0096,0.0083,0.0076,0.0061,0.0054,0.003,0.0054,0.0057,0.0059,0.0064,0.0033,0.0034,0.0026,0.0026,0.0026,0,0,0.0226,0.0218,0.022,0.0206,0.0194,0.0193,0.0168,0.0162,0.0162,0.0129,0.0128,0.0107,0.0083,0.0077,0.0073,0.0065,0.0048,0.006,0.0062,0.0066,0.0034,0.0034,0.0035,0.0026,0.0026,0.0026,0,0,0.0247,0.0239,0.0249,0.0239,0.0226,0.0212,0.0212,0.0189,0.0181,0.0173,0.0152,0.0134,0.0113,0.0097,0.0086,0.0095,0.0066,0.0091,0.0115,0.0085,0.0086,0.0086,0.0054,0.0051,0.0092,0.0093,0.0093,0,0.0258,0.0266,0.0248,0.0254,0.0253,0.0224,0.0234,0.022,0.0197,0.0196,0.018,0.0146,0.0122,0.0115,0.0115,0.0102,0.0081,0.0105,0.0089,0.0089,0.0088,0.0056,0.0052,0.0095,0.0094,0.0094,0.0094,0,0.0282,0.0289,0.0295,0.0295,0.0292,0.0294,0.0276,0.0272,0.0257,0.0241,0.0229,0.019,0.0172,0.0157,0.0138,0.0126,0.0111,0.0098,0.0082,0.0092,0.0057,0.0052,0.0098,0.0097,0.0096,0.0096,0,0,0.031,0.0312,0.0316,0.0328,0.0315,0.0319,0.0321,0.0317,0.0327,0.0292,0.0295,0.0255,0.0232,0.0218,0.0187,0.0155,0.0125,0.0128,0.0126,0.0101,0.0059,0.0052,0.0045,0.0111,0.0111,0.011,0.0036,0,0.0336,0.0361,0.0353,0.0382,0.0393,0.0375,0.0384,0.0377,0.0362,0.0356,0.0309,0.0301,0.0257,0.0251,0.0211,0.0151,0.0115,0.0146,0.005,0.0047,0.0043,0.0041,0.0109,0.0032,0.0031,0.003,0.003,0,0.0363,0.0378,0.0412,0.0433,0.0438,0.0454,0.0471,0.0475,0.0456,0.0443,0.0416,0.0377,0.0331,0.0289,0.0188,0.0212,0.0141,0.0085,0.0081,0.0057,0.0031,0.002,0.0021,0.0021,0.0022,0.0023,0.0023,0,0.0395,0.0421,0.0456,0.0461,0.0478,0.0499,0.0511,0.0507,0.0524,0.0503,0.0506,0.0439,0.0414,0.0316,0.0198,0.0194,0.0079,0.0058,-0.0018,-0.002,-0.0009,-0.0009,-0.0018,-0.0018,-0.0018,-0.0017,-0.0017,0,0.0422,0.0452,0.0481,0.0499,0.0555,0.055,0.0601,0.06,0.0604,0.063,0.0562,0.0558,0.042,0.0335,0.0218,0.0089,0.0094,-0.0014,-0.0038,0.001,0.0013,-0.0013,-0.0012,-0.002,-0.002,-0.0019,-0.0019,0,0.045,0.0465,0.0511,0.0549,0.0572,0.0615,0.0668,0.0697,0.0697,0.0726,0.0724,0.0649,0.0539,0.0391,0.0229,0.0128,-0.0003,-0.0052,0.0013,-0.0006,-0.009,-0.0085,-0.0145,-0.0146,-0.0146,-0.0147,-0.0148,0,0.0462,0.0491,0.0558,0.0595,0.062,0.0683,0.0725,0.0747,0.0781,0.0783,0.0799,0.0707,0.0636,0.0407,0.0243,0.0018,-0.0018,-0.009,-0.0099,-0.0085,-0.0103,-0.0097,-0.0092,-0.0149,-0.0149,-0.0149,-0.0149,0,0.0487,0.0518,0.0559,0.064,0.07,0.0768,0.0831,0.0862,0.0887,0.0887,0.086,0.0736,0.061,0.0417,0.0242,0.008,-0.0046,-0.0099,-0.0099,-0.0107,-0.0091,-0.0106,-0.01,-0.0152,-0.0151,-0.0151,-0.0151,0,0.0511,0.0545,0.0604,0.0678,0.0758,0.0831,0.086,0.0897,0.093,0.0927,0.0917,0.0774,0.0691,0.045,0.0291,0.0127,0.0078,0.0016,0.0009,0.001,0.0071,0.0116,0.0099,0,0,0,0,0,0.0525,0.0565,0.0633,0.0712,0.0793,0.0845,0.0922,0.0941,0.0968,0.0957,0.0939,0.0819,0.0581,0.0482,0.0317,0.0263,0.0041,0.0061,-0.0035,-0.0166,-0.0163,-0.0119,0,0,0,0,0,0,0.0531,0.0596,0.0631,0.0734,0.0793,0.0886,0.0939,0.0955,0.0951,0.0948,0.0829,0.077,0.0542,0.0676,0.0312,0.0263,0.0176,-0.0047,-0.0051,-0.0168,-0.0165,-0.0163,-0.0116,0,0,0,0,0]}]]